Regional Weather Roundup
Issued by NWS Kansas City/Pleasant Hill, MO

Home | Current Version | Previous Version | Text Only | Print | Product List | Glossary On
Versions: 1 2 3 4 5 6 7 8 9 10 11 12 13 14 15 16 17 18 19 20 21 22 23 24 25 26 27 28
000
ASUS43 KEAX 161710
RWREAX

WEATHER ROUNDUP FOR EASTERN KANSAS AND NORTHWEST MISSOURI
NATIONAL WEATHER SERVICE KANSAS CITY/PLEASANT HILL MO
1100 AM CST MON JAN 16 2017

KSZ040-057-103>105-MOZ028-029-037-043-161800-
...KANSAS CITY METROPOLITAN AREA...

CITY           SKY/WX    TMP DP  RH WIND       PRES   REMARKS
K.C. INTL      FOG       41  40  96 E12       29.89F VSB 1/8 WCI  34
K.C. DOWNTOWN  CLOUDY    39  32  76 E7        29.90S HAZE    WCI  34
LEES SUMMIT    FOG       43  43 100 E9        29.89F VSB 1
OLATHE - IXD   LGT RAIN  47  47 100 CALM      29.87F VSB 1
OLATHE - OJC   CLOUDY    47  47 100 SE7       29.87F FOG
LAWRENCE       CLOUDY    41  41 100 E8        29.88F FOG

$$

MOZ001>008-011>017-020>025-030>033-038>040-044>046-053-054-161800-
...NORTHERN AND CENTRAL MISSOURI...

CITY           SKY/WX    TMP DP  RH WIND       PRES   REMARKS
ST. JOSEPH     CLOUDY    36  36 100 E7        29.91F WCI  30
MOSBY            N/A     39  39 100 E8        29.91F WCI  34
WARRENSBURG    CLOUDY    50  48  93 CALM      29.90F
WHITEMAN AFB   CLOUDY    53  53 100 S8        29.90F
CLINTON        CLOUDY    55  55 100 S10       29.92S
SEDALIA        CLOUDY    54  52  93 SE13      29.94S
WARSAW         NOT AVBL
CHILLICOTHE      N/A     38  37  97 E9        29.96F WCI  31
KIRKSVILLE     LGT RAIN  34  34 100 E12       29.98F FOG     WCI  25

$$

MOZ041-047>049-056>058-063>065-088>090-097-161800-
...EASTERN AND SOUTHERN MISSOURI...

CITY           SKY/WX    TMP DP  RH WIND       PRES   REMARKS
ST. LOUIS INTL LGT RAIN  47  44  90 SE12      30.07F FOG
SPIRIT OF STL  LGT RAIN  45  45 100 E3        30.07F FOG
COLUMBIA       CLOUDY    47  47 100 SE15      29.97F FOG
JEFFERSON CITY CLOUDY    49  47  93 SE13      29.98F
ROLLA          LGT RAIN  52  52 100 SE12      29.99F FOG
OSAGE BEACH    CLOUDY    55  53  93 SE9G17    29.96F
SPRINGFIELD    LGT RAIN  53  52  96 SE15      29.93F FOG
BRANSON        FOG       50  50 100 E9        29.96F VSB 1/2
JOPLIN         PTSUNNY   60  54  80 S17       29.90S
WEST PLAINS    FOG       50  50 100 SE10G17   30.04F VSB<1/4

$$

IAZ060-094-KSZ022-034>040-054-083-096-NEZ052-066-093-161800-
...KANSAS...SOUTHEAST NEBRASKA AND IOWA...

CITY           SKY/WX    TMP DP  RH WIND       PRES   REMARKS
TOPEKA         CLOUDY    40  37  89 E6        29.88R
MANHATTAN      FOG       36  36 100 E8        29.86S VSB 1/2 WCI  30
EMPORIA        CLOUDY    45  42  89 S21G26    29.86R
CHANUTE        CLOUDY    48  44  86 SW15G23   29.90R
WICHITA        LGT RAIN  37  37 100 SW10      29.87R FOG     WCI  30
OMAHA          LGT RAIN  33  29  85 N6        29.97F FOG     WCI  28
LINCOLN        RAIN      33  32  96 NE9       29.96S FOG     WCI  25
FALLS CITY     CLOUDY    34  33  96 E8        29.91S FOG     WCI  27
LAMONI         CLOUDY    33  32  96 E7        29.94F FOG     WCI  27
DES MOINES     LGT RAIN  34  32  92 E9        30.00F FOG     WCI  27

$$





USA.gov is the U.S. government's official web portal to all federal, state and local government web resources and services.